Regional Weather Roundup
Issued by NWS Burlington, VT

Home | Current Version | Previous Version | Text Only | Print | Product List | Glossary On
Versions: 1 2 3 4 5 6 7 8 9 10 11 12 13 14 15 16 17 18 19 20 21 22 23 24 25 26 27 28 29 30 31 32 33 34 35 36 37 38 39 40 41 42 43 44 45 46 47 48 49 50
000
ASUS41 KBTV 211530
RWRBTV
VERMONT REGIONAL WEATHER ROUNDUP
NATIONAL WEATHER SERVICE BURLINGTON VT
1100 AM EDT SAT OCT 21 2017

NOTE: "FAIR" INDICATES FEW OR NO CLOUDS BELOW 12,000 FEET WITH NO
SIGNIFICANT WEATHER AND/OR OBSTRUCTIONS TO VISIBILITY.

* THESE REPORTS ARE NOT UNDER NWS QUALITY CONTROL AND/OR DO NOT
  REPORT WEATHER SUCH AS PRECIPITATION AND FOG.

VTZ001>019-211600-
_____VERMONT_____


CITY           SKY/WX    TMP DP  RH WIND       PRES   REMARKS
BURLINGTON     MOSUNNY   65  38  36 S9        30.26S
MORRISVILLE    SUNNY     58  41  53 CALM      30.26F
ST. JOHNSBURY*   N/A     51  39  63 MISG      30.27F
LYNDONVILLE*   FAIR      54  37  51 SE5       30.29S
MIDDLEBURY*    FAIR      63  39  41 S8        30.28S
RUTLAND*       SUNNY     60  40  47 VRB3      30.30S
SPRINGFIELD    SUNNY     57  42  57 S3        30.29F
HIGHGATE*      FAIR      64  38  38 S6        30.25S
NEWPORT*       FAIR      64  41  44 CALM      30.25F
BENNINGTON     SUNNY     62  42  47 CALM      30.32S
ISLAND POND*     N/A     59 N/A N/A SE1         N/A
GALLUP MILLS*    N/A     61 N/A N/A MISG        N/A
UNION VILLAGE*   N/A     55 N/A N/A MISG        N/A
MT. MANSFIELD*   N/A     52 N/A N/A W28         N/A

_____LAKE CHAMPLAIN_____


CITY           SKY/WX    TMP DP  RH WIND       PRES   REMARKS
BURTON ISLAND*   N/A     59  43  55 SW10        N/A
COLCHESTER RF*   N/A     57  45  62 S21         N/A
DIAMOND ISL*     N/A     54  43  66 SW8         N/A

$$

NYZ007-026>031-035-052-083-087-211600-
_____NORTHERN NEW YORK_____


CITY           SKY/WX    TMP DP  RH WIND       PRES   REMARKS
PLATTSBURGH    SUNNY     60  45  57 SE9       30.24F
SARANAC LAKE   SUNNY     59  37  44 SW7       30.28S
MASSENA        SUNNY     64  47  53 SW9       30.26S
OGDENSBURG*    FAIR      67  50  54 S8        30.25S
POTSDAM*       SUNNY     66  48  52 SW8       30.26F
STARK FALLS*     N/A     63 N/A N/A SW7         N/A
WATERTOWN      SUNNY     65  44  46 SW14      30.28S
FT DRUM        SUNNY     67  43  42 SW9       30.28R
ALBANY         MOSUNNY   60  40  47 S7        30.33S
GLENS FALLS    SUNNY     56  40  55 SW6       30.31S

$$
NHZ002-005-011-211600-
_____NEW HAMPSHIRE_____


CITY           SKY/WX    TMP DP  RH WIND       PRES   REMARKS
LEBANON        SUNNY     55  40  56 CALM      30.28F
KEENE          SUNNY     62  45  53 CALM      30.31F
MT WASHINGTON  MOSUNNY   43  41  93 NW55        N/A  WCI  29
PLYMOUTH       FAIR      66  37  34 CALM      30.26S
WHITEFIELD     SUNNY     58  41  53 NW3       30.27F

$$

_____REGIONAL QUEBEC LOCATIONS_____


CITY           SKY/WX    TMP DP  RH WIND       PRES   REMARKS
MONTREAL       MOSUNNY   59  45  58 S6        30.23F
QUEBEC CITY    MOSUNNY   52  39  62 NE6       30.25R
SHERBROOKE     SUNNY     59  41  51 SW6       30.24S

_____REGIONAL ONTARIO LOCATIONS_____


CITY           SKY/WX    TMP DP  RH WIND       PRES   REMARKS
OTTAWA         PTSUNNY   61  46  59 SW6       30.24R

______KEY______
VSB  - VISIBILITY IN MILES
WCI  - WIND CHILL INDEX
HX   - HEAT INDEX
$$
NNNN




USA.gov is the U.S. government's official web portal to all federal, state and local government web resources and services.